#timestamp,LO_Frequency,Hit,StdDev 
1569006015.3,286047000.1,N
1569006035.1,286047002.6,N
1569006055.9,286047001.9,N
1569006075.7,286047002.6,N
1569006095.6,286047002.3,N
1569006115.4,286047000.5,N
1569006135.2,286047002.7,N
1569006155.1,286047002.6,N
1569006156.0,286047002.6,N
1569006175.8,286047001.6,N
1569006195.7,286047001.5,N
1569006215.5,286047002.6,N
1569006235.3,286046999.7,N
1569006255.2,286046999.7,N
1569006275.0,286046999.8,N
1569006275.9,286046999.8,N
1569006295.7,286046999.8,N
1569006315.6,286047002.3,N
1569006335.4,286047002.3,N
1569006355.3,286047000.0,N
1569006375.1,286047000.1,N
1569006376.0,286047000.1,N
1569006395.8,286047001.1,N
1569006415.7,286046999.3,N
1569006435.5,286046998.7,N
1569006455.3,286046998.3,N
1569006475.2,286046996.5,N
1569006495.0,286046998.8,N
1569006495.9,286046998.8,N
1569006515.8,286047001.0,N
1569006535.6,286047000.9,N
1569006555.5,286047000.5,N
1569006575.3,286047000.9,N
1569006595.1,286046998.7,N
1569006615.9,286046998.9,N
1569006635.7,286046999.6,N
1569006655.6,286046998.4,N
1569006675.4,286047001.1,N
1569006695.2,286046998.2,N
1569006715.1,286046998.2,N
1569006716.0,286046998.2,N
1569006735.8,286046999.6,N
1569006755.7,286046997.2,N
1569006775.5,286046997.6,N
1569006795.3,286046996.8,N
1569006815.2,286046995.0,Y
1569006835.0,286046995.0,P
1569006835.9,286046995.0,N
1569006855.8,286046995.4,N
1569006875.6,286046996.5,N
1569006895.4,286046999.6,N
1569006915.3,286046995.5,N
1569006935.1,286046995.3,N
1569006955.8,286046997.5,N
1569006975.7,286046995.1,N
1569006995.5,286046998.0,N
1569007015.4,286046997.7,N
1569007035.2,286046996.8,N
1569007055.0,286046997.5,N
1569007055.9,286046997.5,N
1569007075.8,286046997.9,N
1569007095.6,286046995.4,Y
1569007115.5,286046998.9,P
1569007135.3,286046999.0,N
1569007155.1,286046996.6,P
1569007175.9,286046997.3,N
1569007195.7,286046997.4,N
1569007215.5,286046997.3,N
1569007235.4,286046997.7,N
1569007255.2,286046998.9,N
1569007275.1,286046998.7,N
1569007276.0,286046998.7,N
1569007295.8,286046998.9,N
1569007315.6,286046996.5,Y
1569007335.5,286046998.2,P
1569007355.3,286047001.1,P
1569007375.2,286047000.9,N
1569007395.9,286047000.4,N
1569007415.7,286047000.0,N
1569007435.6,286047000.0,N
1569007455.4,286047000.5,N
1569007475.3,286047000.9,N
1569007495.1,286046998.5,N
1569007496.0,286046998.5,N
1569007515.8,286046999.0,N
1569007535.7,286047001.1,N
1569007555.5,286046999.8,N
1569007575.3,286046999.9,N
1569007595.2,286047000.2,N
1569007615.0,286047001.0,N
1569007615.9,286047001.0,N
1569007635.8,286047002.1,N
1569007655.6,286046999.9,N
1569007675.4,286046999.9,N
1569007695.3,286046999.9,N
1569007715.1,286047000.5,N
1569007735.9,286046999.9,N
1569007755.7,286047000.9,N
1569007775.5,286046999.7,N
1569007795.4,286047001.6,N
1569007815.2,286047001.8,N
1569007835.1,286047001.5,N
1569007836.0,286047001.5,N
1569007855.8,286047002.0,N
1569007875.6,286047001.4,N
1569007895.5,286047001.6,N
1569007915.3,286047003.9,Y
1569007935.2,286047001.8,P
1569007955.9,286047004.4,P
1569007975.7,286047004.4,N
1569007995.6,286047001.3,N
1569008015.4,286047003.4,N
1569008035.2,286047005.1,Y
1569008055.1,286047001.0,P
1569008056.0,286047001.0,N
1569008075.8,286047001.0,N
1569008095.7,286047001.0,N
1569008115.5,286047000.2,N
1569008135.3,286046998.3,N
1569008155.2,286046999.0,N
1569008175.0,286046999.1,N
1569008175.9,286046999.1,N
1569008195.8,286046998.9,N
1569008215.6,286046999.0,N
1569008235.4,286047001.0,N
1569008255.3,286047000.6,N
1569008275.1,286047001.2,N
1569008295.8,286046998.2,N
1569008315.7,286047000.4,N
1569008335.5,286047000.5,N
1569008355.4,286047001.1,N
1569008375.2,286047000.3,N
1569008395.0,286047000.6,N
1569008395.9,286047000.6,N
1569008415.8,286047000.2,N
1569008435.6,286047000.5,N
1569008455.5,286046998.6,N
1569008475.3,286046999.2,N
1569008495.1,286046996.9,N
1569008515.9,286046999.1,N
1569008535.7,286046999.2,N
1569008555.5,286046998.8,N
1569008575.4,286046998.5,N
1569008595.2,286047000.3,N
1569008615.1,286047000.8,N
1569008616.0,286047000.8,N
1569008635.8,286046998.6,N
1569008655.6,286047000.6,N
1569008675.5,286047000.0,N
1569008695.3,286047002.1,N
1569008715.1,286047001.6,N
1569008735.9,286047002.4,N
1569008755.7,286047000.0,N
1569008775.6,286047000.5,N
1569008795.4,286046998.1,N
1569008815.2,286047002.7,N
1569008835.1,286046999.8,N
1569008836.0,286046999.8,N
1569008855.8,286047000.5,N
1569008875.7,286046998.1,N
1569008895.5,286046998.3,N
1569008915.3,286047000.6,N
1569008935.2,286047002.8,N
1569008955.0,286046999.7,N
1569008955.9,286046999.7,N
1569008975.7,286047001.6,N
1569008995.6,286047004.0,N
1569009015.4,286047003.2,N
1569009035.3,286047006.0,Y
1569009055.1,286047003.9,P
1569009075.8,286047004.3,N
1569009095.7,286047004.3,N
1569009115.5,286047001.3,N
1569009135.4,286047001.3,N
1569009155.2,286047000.1,N
1569009175.0,286046998.1,N
1569009175.9,286046998.1,N
1569009195.8,286047000.2,N
1569009215.6,286047000.9,N
1569009235.5,286047001.9,N
1569009255.3,286047001.3,N
1569009275.1,286047002.7,N
1569009295.9,286047002.7,N
1569009315.7,286047000.1,N
1569009335.5,286047000.9,N
1569009355.4,286046999.9,N
1569009375.2,286046999.8,N
1569009395.1,286047000.2,N
1569009396.0,286047000.2,N
1569009415.8,286047000.3,N
1569009435.6,286047000.7,N
1569009455.5,286047000.9,N
1569009475.3,286047000.7,N
1569009495.2,286047000.7,N
1569009515.9,286047000.2,N
1569009535.7,286047000.9,N
1569009555.6,286047001.0,N
1569009575.4,286047000.8,N
1569009595.2,286046998.2,N
